Regional Weather Roundup
Issued by NWS

Home | Current Version | Previous Version | Graphics & Text | Print | Product List | Glossary On
Versions: 1 2 3 4 5 6 7 8 9 10 11 12 13 14 15 16 17 18 19 20 21 22 23 24 25 26 27 28 29 30 31 32 33 34 35 36 37 38 39 40 41 42 43 44 45 46 47 48 49 50
848
ASUS43 KOAX 222102
RWRNE

WEATHER ROUNDUP FOR NEBRASKA
NATIONAL WEATHER SERVICE OMAHA NE
400 PM CDT TUE AUG 22 2017

NOTES: SATELLITE DATA IS BEING USED TO AUGMENT CLOUD COVER ABOVE
       12000 FEET.
       "FAIR" INDICATES FEW OR NO CLOUDS BELOW 12,000 FEET WITH NO
       SIGNIFICANT WEATHER AND/OR OBSTRUCTIONS TO VISIBILITY.


NEZ001>004-019>022-054>056-222200-
NEBRASKA PANHANDLE

CITY           SKY/WX    TMP DP  RH WIND       PRES   REMARKS
SCOTTSBLUFF    SUNNY     83  49  30 S14G21    30.20F
ALLIANCE       SUNNY     79  45  29 S17G24    30.23F
CHADRON        SUNNY     84  45  25 S14G22    30.17F
GORDON         FAIR      82  41  23 SW9       30.21F
KIMBALL        SUNNY     79  50  36 SE16G23   30.27F
SIDNEY         SUNNY     81  47  30 S15G25    30.27F
$$

NEZ057>060-069>072-079>082-222200-
SOUTHWEST NEBRASKA

CITY           SKY/WX    TMP DP  RH WIND       PRES   REMARKS
NORTH PLATTE   SUNNY     79  52  38 E8        30.23F
IMPERIAL       SUNNY     81  42  25 SE12      30.24F
LEXINGTON      SUNNY     76  51  41 SE3       30.24F
MCCOOK         SUNNY     81  49  32 E8        30.22F
OGALLALA       SUNNY     80  47  31 S5        30.24F
$$

NEZ005>010-023>029-035>040-094-222200-
NORTH CENTRAL NEBRASKA

CITY           SKY/WX    TMP DP  RH WIND       PRES   REMARKS
VALENTINE      SUNNY     81  43  26 SE6       30.20F
AINSWORTH      SUNNY     75  53  45 NE5       30.22F
BROKEN BOW     SUNNY     77  48  35 E5        30.22F
O`NEILL        SUNNY     74  51  43 W5        30.21F
ORD            SUNNY     77  46  33 CALM      30.20F
THEDFORD       SUNNY     79  46  30 S6        30.23F
$$

NEZ041-046>049-061>064-073>077-083>087-222200-
SOUTH CENTRAL NEBRASKA

CITY           SKY/WX    TMP DP  RH WIND       PRES   REMARKS
GRAND ISLAND   SUNNY     77  50  38 N7        30.21F
AURORA         SUNNY     74  53  47 N6        30.20F
HASTINGS       SUNNY     76  50  40 NE5       30.23F
HEBRON         SUNNY     79  49  34 N7        30.19F
HOLDREGE       SUNNY     74  51  45 E5        30.23F
KEARNEY        SUNNY     75  49  39 NE6       30.23F
YORK           SUNNY     73  54  49 N10       30.20F
$$

NEZ011>018-030>034-042>045-222200-
NORTHEAST NEBRASKA

CITY           SKY/WX    TMP DP  RH WIND       PRES   REMARKS
NORFOLK        SUNNY     74  48  39 NW13      30.18F
ALBION         SUNNY     74  53  46 CALM      30.20F
BLAIR          SUNNY     74  50  42 NW10G16   30.17S
COLUMBUS       SUNNY     73  54  51 NW8       30.19F
FREMONT        SUNNY     75  51  42 N7        30.18F
TEKAMAH        SUNNY     76  51  41 NW9       30.16F
WAYNE          SUNNY     73  45  36 N12       30.18F
$$

NEZ050>053-065>068-078-088>093-222200-
SOUTHEAST NEBRASKA

CITY           SKY/WX    TMP DP  RH WIND       PRES   REMARKS
LINCOLN        SUNNY     77  52  41 N9        30.18F
OMAHA EPPLEY   MOSUNNY   78  49  35 N13       30.15F
BEATRICE       SUNNY     77  52  41 N9        30.17F
FALLS CITY     SUNNY     76  53  44 N13       30.13F
NEBRASKA CITY  SUNNY     75  51  43 N8        30.16F
PLATTSMOUTH    SUNNY     75  48  37 NW10G17   30.16F
$$

NEZ044-045-051>053-067-222200-
OMAHA AREA

CITY           SKY/WX    TMP DP  RH WIND       PRES   REMARKS
OMAHA EPPLEY   MOSUNNY   78  49  35 N13       30.15F
BLAIR          SUNNY     74  50  42 NW10G16   30.17S
FREMONT        SUNNY     75  51  42 N7        30.18F
MILLARD        SUNNY     77  51  39 NW10G17   30.16F
OFFUTT AFB     SUNNY     77  47  34 N9        30.15F
PLATTSMOUTH    SUNNY     75  48  37 NW10G17   30.16F
WAHOO          FAIR      74  55  49 NW9       30.17F
$$




USA.gov is the U.S. government's official web portal to all federal, state and local government web resources and services.